Weather History for KUKI - October, 2012

Change the Weather History Date:

Monday, October 8, 2012

  Actual Average Record
Temperature  
Mean Temperature 57 °F 63 °F  
Max Temperature 71 °F 81 °F 99 °F (1971)
Min Temperature 42 °F 45 °F 33 °F (1949)
Degree Days  
Heating Degree Days 8 3  
Month to date heating degree days 22  
Since 1 July heating degree days 55  
Cooling Degree Days 0 1  
Month to date cooling degree days 13  
Year to date cooling degree days 826  
Growing Degree Days 6 (Base 50)    
Moisture  
Dew Point 44 °F    
Average Humidity 65    
Maximum Humidity 89    
Minimum Humidity 40    
Precipitation  
Precipitation 0.00 in 0.01 in 0.89 in (1997)
Month to date precipitation 0.00 0.08  
Year to date precipitation 18.92 24.05  
Since 1 July precipitation T 0.67  
Snow  
Snow 0.00 in - - ()
Month to date snowfall 0.0  
Since 1 July snowfall 0.0  
Since 1 September snowfall 0.0  
Snow Depth -    
Sea Level Pressure  
Sea Level Pressure 30.01 in    
Wind  
Wind Speed 1 mph (NW)    
Max Wind Speed 9 mph    
Max Gust Speed 14 mph    
Visibility 10 miles    
Events      
T = Trace of Precipitation, MM = Missing Value Source: NWS Daily Summary

Daily Weather History Graph

Daily Weather History Graph

Search for Another Location

Airport or City:

Trip Planner

Search our weather history database for the weather conditions in past years. The results will help you decide how hot, cold, wet, or windy it might be!

Date:

Astronomy

Oct. 08, 2012 Rise Set
Actual Time 7:16 AM PDT 6:43 PM PDT
Civil Twilight 6:49 AM PDT 7:10 PM PDT
Nautical Twilight 6:18 AM PDT 7:41 PM PDT
Astronomical Twilight 5:47 AM PDT 8:12 PM PDT
Moon 12:03 AM PDT (10/8) 2:34 PM PDT (10/8)
Length of Visible Light 12h 21m
Length of Day
11h 27m
Last Quarter, 45% of the Moon is Illuminated
Oct 8
Last Quarter
Oct 15
New
Oct 21
First Quarter
Oct 29
Full
Nov 6
Last Quarter

Hourly Weather History & Observations

Time (PDT) Temp. Dew Point Humidity Pressure Visibility Wind Dir Wind Speed Gust Speed Precip Events Conditions
12:56 AM 48.9 °F 44.1 °F 83% 29.99 in 10.0 mi Calm Calm - N/A   Clear
1:56 AM 46.9 °F 42.1 °F 83% 30.00 in 10.0 mi Calm Calm - N/A   Clear
2:56 AM 48.9 °F 44.1 °F 83% 30.00 in 10.0 mi Calm Calm - N/A   Clear
3:56 AM 46.0 °F 42.1 °F 86% 30.00 in 10.0 mi Calm Calm - N/A   Clear
4:56 AM 44.1 °F 41.0 °F 89% 30.00 in 10.0 mi Calm Calm - N/A   Clear
5:56 AM 44.1 °F 39.9 °F 85% 30.00 in 10.0 mi Calm Calm - N/A   Clear
6:56 AM 44.1 °F 41.0 °F 89% 30.01 in 10.0 mi Calm Calm - N/A   Clear
7:56 AM 43.0 °F 39.9 °F 89% 30.03 in 10.0 mi Calm Calm - N/A   Clear
8:56 AM 48.0 °F 42.1 °F 80% 30.03 in 10.0 mi Calm Calm - N/A   Clear
9:56 AM 54.0 °F 44.1 °F 69% 30.04 in 10.0 mi Calm Calm - N/A   Clear
10:56 AM 61.0 °F 44.1 °F 54% 30.02 in 10.0 mi Calm Calm - N/A   Clear
11:56 AM 64.9 °F 46.0 °F 50% 30.01 in 10.0 mi Calm Calm - N/A   Clear
1:56 PM 69.1 °F 46.0 °F 44% 29.98 in 10.0 mi Variable 4.6 mph - N/A   Scattered Clouds
2:56 PM 70.0 °F 46.0 °F 42% 29.97 in 10.0 mi West 4.6 mph - N/A   Mostly Cloudy
3:56 PM 70.0 °F 45.0 °F 41% 29.97 in 10.0 mi Calm Calm - N/A   Partly Cloudy
4:56 PM 69.1 °F 46.0 °F 44% 29.97 in 10.0 mi West 5.8 mph - N/A   Clear
7:56 PM 60.1 °F 48.0 °F 64% 30.01 in 10.0 mi North 3.5 mph - N/A   Clear
8:56 PM 57.9 °F 46.9 °F 67% 30.01 in 10.0 mi North 4.6 mph - N/A   Clear
9:56 PM 53.1 °F 46.0 °F 77% 30.03 in 10.0 mi Calm Calm - N/A   Clear
10:56 PM 54.0 °F 46.0 °F 75% 30.04 in 10.0 mi Calm Calm - N/A   Clear
11:56 PM 52.0 °F 45.0 °F 77% 30.04 in 10.0 mi Calm Calm - N/A   Clear